Regional Weather Roundup
Issued by NWS

Home | Current Version | Previous Version | Graphics & Text | Print | Product List | Glossary On
Versions: 1 2 3 4 5 6 7 8 9 10 11 12 13 14 15 16 17 18 19 20 21 22 23 24 25 26 27 28 29 30 31 32 33 34 35 36 37 38 39 40 41 42 43 44 45 46 47 48 49 50
000
ASUS43 KFSD 040310
RWRSD

WEATHER ROUNDUP FOR SOUTH DAKOTA
NATIONAL WEATHER SERVICE SIOUX FALLS SD
1000 PM CDT TUE MAY 03 2016

NOTE: "FAIR" INDICATES FEW OR NO CLOUDS BELOW 12,000 FEET WITH NO
SIGNIFICANT WEATHER AND/OR OBSTRUCTIONS TO VISIBILITY.


SDZ001>005-009-010-012>017-040400-
NORTHWEST AND NORTH CENTRAL SOUTH DAKOTA

CITY           SKY/WX    TMP DP  RH WIND       PRES   REMARKS
BUFFALO          N/A     65  35  33 N10       30.03R
FAITH            N/A     60  40  47 N7        30.05R
MOBRIDGE       CLEAR     55  38  52 NE7       29.98R
$$

SDZ012>016-024>037-041>051-057-063-072>074-040400-
SOUTHWEST AND SOUTH CENTRAL SOUTH DAKOTA

CITY           SKY/WX    TMP DP  RH WIND       PRES   REMARKS
RAPID CTY ARPT CLEAR     54  40  59 N10       30.09R
PIERRE         CLEAR     57  42  57 N10       29.98R
CUSTER         CLEAR     56  32  40 CALM      30.20R
ELLSWORTH AFB  CLEAR     64  41  41 N7        30.09R
PHILIP         CLEAR     57  46  66 NW9       30.02R
PINE RIDGE     CLEAR     54  37  52 N5        30.10R
WINNER         FAIR      58  44  60 NW5       29.98R
$$

SDZ004>011-016>023-039-040-040400-
NORTHEAST SOUTH DAKOTA

CITY           SKY/WX    TMP DP  RH WIND       PRES   REMARKS
ABERDEEN       CLEAR     56  31  38 N12       29.96R
WATERTOWN      CLEAR     53  29  39 N13       29.92R
BROOKINGS      CLEAR     53  31  42 N9        29.89R
SISSETON         N/A     57  30  35 N20       29.91R
$$

SDZ017-020-022-023-036>040-048>070-040400-
SOUTHEAST SOUTH DAKOTA

CITY           SKY/WX    TMP DP  RH WIND       PRES   REMARKS
SIOUX FALLS    CLEAR     57  32  38 N13       29.88R
HURON          CLEAR     55  32  41 N10       29.93R
CHAMBERLAIN    CLEAR     63  44  49 N9        29.96R
MITCHELL       CLEAR     58  36  43 N10       29.92R
YANKTON        CLEAR     59  46  63 NW10      29.88R
$$

ABBREVIATIONS USED IN REMARKS
   TC - TEMPERATURE IN CELSIUS
  WCI - WIND CHILL INDEX
   HX - HEAT INDEX
  VSB - VISIBILITY




USA.gov is the U.S. government's official web portal to all federal, state and local government web resources and services.